Regional Weather Roundup
Issued by NWS

Home | Current Version | Previous Version | Graphics & Text | Print | Product List | Glossary On
Versions: 1 2 3 4 5 6 7 8 9 10 11 12 13 14 15 16 17 18 19 20 21 22 23 24 25 26 27 28 29 30 31 32 33 34 35 36 37 38 39 40 41 42 43 44 45 46 47 48 49 50
000
ASUS43 KOAX 300002
RWRNE

WEATHER ROUNDUP FOR NEBRASKA
NATIONAL WEATHER SERVICE OMAHA NE
700 PM CDT WED OCT 29 2014

NOTES: SATELLITE DATA IS BEING USED TO AUGMENT CLOUD COVER ABOVE
       12000 FEET.
       "FAIR" INDICATES FEW OR NO CLOUDS BELOW 12,000 FEET WITH NO
       SIGNIFICANT WEATHER AND/OR OBSTRUCTIONS TO VISIBILITY.

  * THESE STATIONS DO NOT REPORT WEATHER SUCH AS RAIN...SNOW OR FOG.

NEZ001>004-019>022-054>056-300100-
NEBRASKA PANHANDLE

CITY           SKY/WX    TMP DP  RH WIND       PRES   REMARKS
SCOTTSBLUFF    PTCLDY    60  25  26 N10       30.03R
6HR MIN TEMP:  59; 6HR MAX TEMP:  72;

ALLIANCE       PTCLDY    58  25  28 NW16      30.01R
6HR MIN TEMP:  58; 6HR MAX TEMP:  70;

CHADRON        PTCLDY    56  26  31 N10       30.02R
6HR MIN TEMP:  56; 6HR MAX TEMP:  68;

KIMBALL        CLEAR     59  24  26 NW15      30.06R
SIDNEY         PTCLDY    61  23  23 NW14      30.04R
6HR MIN TEMP:  61; 6HR MAX TEMP:  73;

$$

NEZ057>060-069>072-079>082-300100-
SOUTHWEST NEBRASKA

CITY           SKY/WX    TMP DP  RH WIND       PRES   REMARKS
NORTH PLATTE   CLEAR     57  28  33 S6        29.95F
6HR MIN TEMP:  57; 6HR MAX TEMP:  71;

IMPERIAL       CLEAR     63  20  19 W5        29.98S
6HR MIN TEMP:  63; 6HR MAX TEMP:  72;

LEXINGTON      CLEAR     58  32  37 SE7       29.98F
MCCOOK         CLEAR     64  23  21 S8        29.98F
6HR MIN TEMP:  59; 6HR MAX TEMP:  73;

OGALLALA       PTCLDY    62  26  24 NW6       29.96S
$$

NEZ005>010-023>029-035>040-094-300100-
NORTH CENTRAL NEBRASKA

CITY           SKY/WX    TMP DP  RH WIND       PRES   REMARKS
VALENTINE      CLOUDY    61  25  25 NW3       29.96R
6HR MIN TEMP:  56; 6HR MAX TEMP:  67;

AINSWORTH      CLOUDY    56  25  30 SE5       29.96R
BROKEN BOW     CLEAR     52  31  44 SE7       29.97F
6HR MIN TEMP:  52; 6HR MAX TEMP:  66;

O`NEILL        PTCLDY    53  31  43 SE8       29.99S
ORD            CLEAR     54  30  40 SE6       29.97F
6HR MIN TEMP:  54; 6HR MAX TEMP:  62;

THEDFORD       PTCLDY    63  26  24 CALM      29.96S
$$

NEZ041-046>049-061>064-073>077-083>087-300100-
SOUTH CENTRAL NEBRASKA

CITY           SKY/WX    TMP DP  RH WIND       PRES   REMARKS
GRAND ISLAND   CLEAR     53  34  48 SE7       30.02F
6HR MIN TEMP:  53; 6HR MAX TEMP:  62;

AURORA         CLEAR     51  32  48 SE5       30.03S
HASTINGS       CLEAR     57  33  40 SE8       30.01F
6HR MIN TEMP:  55; 6HR MAX TEMP:  62;

HOLDREGE       CLEAR     57  34  41 CALM      29.99F
KEARNEY *      CLEAR     54  32  43 E8        30.01S
YORK           CLEAR     52  34  50 S7        30.04F
$$

NEZ011>018-030>034-042>045-300100-
NORTHEAST NEBRASKA

CITY           SKY/WX    TMP DP  RH WIND       PRES   REMARKS
NORFOLK        CLEAR     46  32  58 SE6       30.04S
6HR MIN TEMP:  46; 6HR MAX TEMP:  57;

ALBION         CLEAR     47  31  53 SE5       30.02S
BLAIR          CLEAR     50  31  49 SE6       30.08S
COLUMBUS *       N/A    N/A N/A N/A MISG        N/A
FREMONT        CLEAR     51  32  49 SE5       30.07S
TEKAMAH        CLEAR     47  30  51 SE7       30.08S
6HR MIN TEMP:  47; 6HR MAX TEMP:  57;

WAYNE          CLEAR     47  32  56 SE8       30.05S
$$

NEZ050>053-065>068-078-088>093-300100-
SOUTHEAST NEBRASKA

CITY           SKY/WX    TMP DP  RH WIND       PRES   REMARKS
LINCOLN        CLEAR     50  32  50 S7        30.08F
6HR MIN TEMP:  49; 6HR MAX TEMP:  59;

OMAHA EPPLEY   PTCLDY    50  32  50 SE9       30.09F
6HR MIN TEMP:  50; 6HR MAX TEMP:  56;

BEATRICE       CLEAR     54  33  44 SE5       30.07F
FALLS CITY     CLEAR     51  32  48 SE5       30.10F
6HR MIN TEMP:  51; 6HR MAX TEMP:  59;

NEBRASKA CITY  CLEAR     50  26  38 SE3       30.10F
PLATTSMOUTH    CLEAR     50  30  45 SE5       30.09S
$$

NEZ044-045-051>053-067-300100-
OMAHA AREA

CITY           SKY/WX    TMP DP  RH WIND       PRES   REMARKS
OMAHA EPPLEY   PTCLDY    50  32  50 SE9       30.09F
6HR MIN TEMP:  50; 6HR MAX TEMP:  56;

BLAIR          CLEAR     50  31  49 SE6       30.08S
FREMONT        CLEAR     51  32  49 SE5       30.07S
MILLARD        CLEAR     52  33  48 SE5       30.08S
OFFUTT AFB     CLEAR     47  34  62 SE6       30.08F
PLATTSMOUTH    CLEAR     50  30  45 SE5       30.09S
WAHOO          FAIR      47  31  54 SE6       30.07S
$$



USA.gov is the U.S. government's official web portal to all federal, state and local government web resources and services.